Time,TemperatureF,DewpointF,PressureIn,WindDirection,WindDirectionDegrees,WindSpeedMPH,WindSpeedGustMPH,Humidity,HourlyPrecipIn,Conditions,Clouds,dailyrainin,SoftwareType,DateUTC
2013-01-13 00:00:00,-17.0,-23.0,-100.00,WSW,242,11.0,21.0,73,-99.99,,,-99.99,,2013-01-13 07:00:00,
2013-01-13 00:42:00,-17.0,-23.0,-100.00,WSW,242,11.0,21.0,73,-99.99,,,-99.99,,2013-01-13 07:42:00,
2013-01-13 00:52:00,-17.0,-23.0,-100.00,WSW,242,11.0,21.0,73,-99.99,,,-99.99,,2013-01-13 07:52:00,
2013-01-13 01:00:00,-18.0,-22.0,-100.00,West,260,10.0,18.0,79,-99.99,,,-99.99,,2013-01-13 08:00:00,
2013-01-13 01:42:00,-18.0,-22.0,-100.00,West,260,10.0,18.0,79,-99.99,,,-99.99,,2013-01-13 08:42:00,
2013-01-13 01:52:00,-18.0,-22.0,-100.00,West,260,10.0,18.0,79,-99.99,,,-99.99,,2013-01-13 08:52:00,
2013-01-13 02:00:00,-18.0,-22.0,-100.00,WSW,250,9.0,16.0,79,-99.99,,,-99.99,,2013-01-13 09:00:00,
2013-01-13 02:42:00,-18.0,-22.0,-100.00,WSW,250,9.0,16.0,79,-99.99,,,-99.99,,2013-01-13 09:42:00,
2013-01-13 02:52:00,-18.0,-22.0,-100.00,WSW,250,9.0,16.0,79,-99.99,,,-99.99,,2013-01-13 09:52:00,
2013-01-13 03:00:00,-18.0,-22.0,-100.00,SW,220,10.0,20.0,79,-99.99,,,-99.99,,2013-01-13 10:00:00,
2013-01-13 03:42:00,-18.0,-22.0,-100.00,SW,220,10.0,20.0,79,-99.99,,,-99.99,,2013-01-13 10:42:00,
2013-01-13 03:52:00,-18.0,-22.0,-100.00,SW,220,10.0,20.0,79,-99.99,,,-99.99,,2013-01-13 10:52:00,
2013-01-13 04:00:00,-18.0,-23.0,-100.00,WSW,258,11.0,26.0,79,-99.99,,,-99.99,,2013-01-13 11:00:00,
2013-01-13 04:42:00,-18.0,-23.0,-100.00,WSW,258,11.0,26.0,79,-99.99,,,-99.99,,2013-01-13 11:42:00,
2013-01-13 04:52:00,-18.0,-23.0,-100.00,WSW,258,11.0,26.0,79,-99.99,,,-99.99,,2013-01-13 11:52:00,
2013-01-13 05:00:00,-18.0,-22.0,-100.00,SW,227,10.0,29.0,78,-99.99,,,-99.99,,2013-01-13 12:00:00,
2013-01-13 05:42:00,-18.0,-22.0,-100.00,SW,227,10.0,29.0,78,-99.99,,,-99.99,,2013-01-13 12:42:00,
2013-01-13 05:53:00,-18.0,-22.0,-100.00,SW,227,10.0,29.0,78,-99.99,,,-99.99,,2013-01-13 12:53:00,
2013-01-13 06:00:00,-17.0,-22.0,-100.00,SW,226,13.0,33.0,78,-99.99,,,-99.99,,2013-01-13 13:00:00,
2013-01-13 06:43:00,-17.0,-22.0,-100.00,SW,226,13.0,33.0,78,-99.99,,,-99.99,,2013-01-13 13:43:00,
2013-01-13 06:53:00,-17.0,-22.0,-100.00,SW,226,13.0,33.0,78,-99.99,,,-99.99,,2013-01-13 13:53:00,
2013-01-13 07:00:00,-17.0,-22.0,-100.00,SW,221,12.0,37.0,76,-99.99,,,-99.99,,2013-01-13 14:00:00,
2013-01-13 07:43:00,-17.0,-22.0,-100.00,SW,221,12.0,37.0,76,-99.99,,,-99.99,,2013-01-13 14:43:00,
2013-01-13 07:53:00,-17.0,-22.0,-100.00,SW,221,12.0,37.0,76,-99.99,,,-99.99,,2013-01-13 14:53:00,
2013-01-13 08:00:00,-16.0,-21.0,-100.00,SW,228,17.0,43.0,75,-99.99,,,-99.99,,2013-01-13 15:00:00,
2013-01-13 08:43:00,-16.0,-21.0,-100.00,SW,228,17.0,43.0,75,-99.99,,,-99.99,,2013-01-13 15:43:00,
2013-01-13 08:53:00,-16.0,-21.0,-100.00,SW,228,17.0,43.0,75,-99.99,,,-99.99,,2013-01-13 15:53:00,
2013-01-13 09:00:00,-15.0,-20.0,-100.00,SSW,203,18.0,36.0,76,-99.99,,,-99.99,,2013-01-13 16:00:00,
2013-01-13 09:43:00,-15.0,-20.0,-100.00,SSW,203,18.0,36.0,76,-99.99,,,-99.99,,2013-01-13 16:43:00,
2013-01-13 09:53:00,-15.0,-20.0,-100.00,SSW,203,18.0,36.0,76,-99.99,,,-99.99,,2013-01-13 16:53:00,
2013-01-13 10:00:00,-15.0,-19.0,-100.00,South,181,14.0,35.0,79,-99.99,,,-99.99,,2013-01-13 17:00:00,
2013-01-13 10:43:00,-15.0,-19.0,-100.00,South,181,14.0,35.0,79,-99.99,,,-99.99,,2013-01-13 17:43:00,
2013-01-13 10:53:00,-15.0,-19.0,-100.00,South,181,14.0,35.0,79,-99.99,,,-99.99,,2013-01-13 17:53:00,
2013-01-13 11:00:00,-13.0,-18.0,-100.00,SSE,161,11.0,19.0,80,-99.99,,,-99.99,,2013-01-13 18:00:00,
2013-01-13 11:43:00,-13.0,-18.0,-100.00,SSE,161,11.0,19.0,80,-99.99,,,-99.99,,2013-01-13 18:43:00,
2013-01-13 11:53:00,-13.0,-18.0,-100.00,SSE,161,11.0,19.0,80,-99.99,,,-99.99,,2013-01-13 18:53:00,
2013-01-13 12:00:00,-12.0,-17.0,-100.00,South,173,15.0,33.0,80,-99.99,,,-99.99,,2013-01-13 19:00:00,
2013-01-13 12:43:00,-12.0,-17.0,-100.00,South,173,15.0,33.0,80,-99.99,,,-99.99,,2013-01-13 19:43:00,
2013-01-13 12:53:00,-12.0,-17.0,-100.00,South,173,15.0,33.0,80,-99.99,,,-99.99,,2013-01-13 19:53:00,
2013-01-13 13:00:00,-11.0,-16.0,-100.00,SSE,164,12.0,22.0,80,-99.99,,,-99.99,,2013-01-13 20:00:00,
2013-01-13 13:43:00,-11.0,-16.0,-100.00,SSE,164,12.0,22.0,80,-99.99,,,-99.99,,2013-01-13 20:43:00,
2013-01-13 13:53:00,-11.0,-16.0,-100.00,SSE,164,12.0,22.0,80,-99.99,,,-99.99,,2013-01-13 20:53:00,
2013-01-13 14:00:00,-11.0,-15.0,-100.00,SSE,150,13.0,23.0,81,-99.99,,,-99.99,,2013-01-13 21:00:00,
2013-01-13 14:43:00,-11.0,-15.0,-100.00,SSE,150,13.0,23.0,81,-99.99,,,-99.99,,2013-01-13 21:43:00,
2013-01-13 14:53:00,-11.0,-15.0,-100.00,SSE,150,13.0,23.0,81,-99.99,,,-99.99,,2013-01-13 21:53:00,
2013-01-13 15:00:00,-10.0,-14.0,-100.00,SSE,157,9.0,18.0,81,-99.99,,,-99.99,,2013-01-13 22:00:00,
2013-01-13 15:43:00,-10.0,-14.0,-100.00,SSE,157,9.0,18.0,81,-99.99,,,-99.99,,2013-01-13 22:43:00,
2013-01-13 15:52:00,-10.0,-14.0,-100.00,SSE,157,9.0,18.0,81,-99.99,,,-99.99,,2013-01-13 22:52:00,
2013-01-13 16:00:00,-10.0,-14.0,-100.00,SSE,159,11.0,21.0,81,-99.99,,,-99.99,,2013-01-13 23:00:00,
2013-01-13 16:43:00,-10.0,-14.0,-100.00,SSE,159,11.0,21.0,81,-99.99,,,-99.99,,2013-01-13 23:43:00,
2013-01-13 16:53:00,-10.0,-14.0,-100.00,SSE,159,11.0,21.0,81,-99.99,,,-99.99,,2013-01-13 23:53:00,
2013-01-13 17:00:00,-13.0,-17.0,-100.00,SSE,151,10.0,17.0,81,-99.99,,,-99.99,,2013-01-14 00:00:00,
2013-01-13 17:43:00,-13.0,-17.0,-100.00,SSE,151,10.0,17.0,81,-99.99,,,-99.99,,2013-01-14 00:43:00,
2013-01-13 17:53:00,-13.0,-17.0,-100.00,SSE,151,10.0,17.0,81,-99.99,,,-99.99,,2013-01-14 00:53:00,
2013-01-13 18:00:00,-14.0,-18.0,-100.00,SSE,162,15.0,25.0,81,-99.99,,,-99.99,,2013-01-14 01:00:00,
2013-01-13 18:42:00,-14.0,-18.0,-100.00,SSE,162,15.0,25.0,81,-99.99,,,-99.99,,2013-01-14 01:42:00,
2013-01-13 18:52:00,-14.0,-18.0,-100.00,SSE,162,15.0,25.0,81,-99.99,,,-99.99,,2013-01-14 01:52:00,
2013-01-13 19:00:00,-15.0,-19.0,-100.00,SSE,159,15.0,23.0,80,-99.99,,,-99.99,,2013-01-14 02:00:00,
2013-01-13 19:43:00,-15.0,-19.0,-100.00,SSE,159,15.0,23.0,80,-99.99,,,-99.99,,2013-01-14 02:43:00,
2013-01-13 19:53:00,-15.0,-19.0,-100.00,SSE,159,15.0,23.0,80,-99.99,,,-99.99,,2013-01-14 02:53:00,
2013-01-13 20:00:00,-15.0,-19.0,-100.00,SSE,163,14.0,21.0,80,-99.99,,,-99.99,,2013-01-14 03:00:00,
2013-01-13 20:43:00,-15.0,-19.0,-100.00,SSE,163,14.0,21.0,80,-99.99,,,-99.99,,2013-01-14 03:43:00,
2013-01-13 20:53:00,-15.0,-19.0,-100.00,SSE,163,14.0,21.0,80,-99.99,,,-99.99,,2013-01-14 03:53:00,
2013-01-13 21:00:00,-15.0,-19.0,-100.00,South,187,17.0,30.0,80,-99.99,,,-99.99,,2013-01-14 04:00:00,
2013-01-13 21:42:00,-15.0,-19.0,-100.00,South,187,17.0,30.0,80,-99.99,,,-99.99,,2013-01-14 04:42:00,
2013-01-13 21:53:00,-15.0,-19.0,-100.00,South,187,17.0,30.0,80,-99.99,,,-99.99,,2013-01-14 04:53:00,
2013-01-13 22:00:00,-14.0,-18.0,-100.00,South,183,17.0,29.0,81,-99.99,,,-99.99,,2013-01-14 05:00:00,
2013-01-13 22:43:00,-14.0,-18.0,-100.00,South,183,17.0,29.0,81,-99.99,,,-99.99,,2013-01-14 05:43:00,
2013-01-13 22:53:00,-14.0,-18.0,-100.00,South,183,17.0,29.0,81,-99.99,,,-99.99,,2013-01-14 05:53:00,
2013-01-13 23:00:00,-13.0,-18.0,-100.00,SSW,193,21.0,37.0,81,-99.99,,,-99.99,,2013-01-14 06:00:00,
2013-01-13 23:43:00,-13.0,-18.0,-100.00,SSW,193,21.0,37.0,81,-99.99,,,-99.99,,2013-01-14 06:43:00,
2013-01-13 23:52:00,-13.0,-18.0,-100.00,SSW,193,21.0,37.0,81,-99.99,,,-99.99,,2013-01-14 06:52:00,